[[{"header":{"parameterUnit":"m.s-1","parameterCategory":1,"la1":30.2991,"la2":30.254,"lo1":-89.0895,"lo2":-89.0444,"dy":0.0017,"dx":0.0017,"nx":28,"ny":28,"refTime":"2024-04-01T03:00:00:Z","depth":0,"parameterNumber":2,"parameterNumberName":"U-component_of_WINDS"},"data":[0,0,0,0,0,0,0,0,0,0,0,0,0,0,0,0,0,0,0,0,0,0,0,0,0,0,0,0,0,0,0,0,0,0,0,0,0,0,0,0,0,0,0,0,0,0,0,0,0,0,0,0,0,0,0,0,0,0,-1.7544,-1.7544,0,-1.7594,-1.7595,-1.7596,-1.7578,-1.7576,-1.7575,-1.7574,-1.7625,-1.7627,-1.763,0,0,0,0,0,0,0,0,0,0,0,0,0,-1.7429,-1.7431,-1.7544,-1.7544,-1.7545,-1.7594,-1.7595,-1.7596,-1.7578,-1.7576,-1.7575,-1.7574,-1.7624,-1.7627,-1.763,0,0,0,0,0,0,0,0,0,0,0,0,0,-1.7479,-1.7432,-1.7543,-1.7542,-1.7542,-1.7594,-1.7595,-1.7596,-1.7578,-1.7576,-1.7575,-1.7573,-1.7623,-1.7627,-1.763,-1.7686,0,0,-1.7641,-1.7643,0,0,0,0,0,0,0,0,-1.7476,-1.7483,-1.7541,-1.7542,-1.7543,-1.7578,-1.7573,-1.7626,-1.7579,-1.7564,-1.7574,-1.7572,-1.7611,-1.7615,-1.7628,-1.7689,-1.7691,-1.7642,-1.7644,-1.7645,-1.7646,0,0,0,0,0,0,0,-1.7473,-1.7481,-1.7564,-1.7542,-1.7543,-1.7538,-1.7543,-1.7583,-1.7596,-1.7566,-1.7564,-1.7571,-1.7611,-1.7625,-1.7629,-1.7692,-1.7642,-1.7645,-1.7647,-1.7648,-1.7798,-1.78,0,0,0,0,0,0,-1.7469,-1.7478,-1.7562,-1.7565,-1.7505,-1.7541,-1.7547,-1.7568,-1.7596,-1.7598,-1.7572,-1.757,-1.762,-1.7625,-1.7631,-1.7697,-1.7645,-1.7649,-1.7651,-1.7796,-1.7798,-1.78,0,0,0,0,0,0,-1.7467,-1.7477,-1.756,-1.7521,-1.7531,-1.7545,-1.7569,-1.757,-1.7584,-1.7601,-1.7603,-1.7584,-1.7618,-1.7626,-1.7672,-1.7698,-1.765,-1.7654,-1.7794,-1.7797,-1.7799,-1.7829,0,0,0,0,0,0,-1.7463,-1.7476,-1.7498,-1.7522,-1.7534,-1.7601,-1.7571,-1.7572,-1.7591,-1.7588,-1.7613,-1.7615,-1.7618,-1.7667,-1.7676,-1.7702,-1.7656,-1.7792,-1.7795,-1.7799,-1.7826,-1.7833,-1.7838,0,0,0,0,0,-1.7459,-1.7505,-1.7499,-1.751,-1.7562,-1.7603,-1.7609,-1.7611,-1.7593,-1.7615,-1.7625,-1.7615,-1.7694,-1.7672,-1.7682,-1.771,-1.779,-1.7794,-1.7798,-1.7823,-1.7831,-1.7838,0,0,0,0,0,0,-1.7483,-1.7508,-1.7502,-1.7557,-1.7578,-1.76,-1.7627,-1.762,-1.7647,-1.7643,-1.7644,-1.765,-1.7697,-1.7708,-1.7683,-1.7764,-1.7739,-1.7746,-1.7755,-1.7763,-1.7769,-1.7764,-1.7659,0,0,0,0,0,-1.7495,-1.7527,-1.7546,-1.7593,-1.7603,-1.7613,-1.7631,-1.7631,-1.7653,-1.7662,-1.7675,-1.7696,-1.7726,-1.7745,-1.7773,-1.7828,-1.7832,-1.7852,-1.7858,-1.7863,-1.7868,-1.7895,-1.7904,-1.7814,-1.7814,-1.7814,0,0,-1.7519,-1.7537,-1.7557,-1.7598,-1.7614,-1.7646,-1.7621,-1.7656,-1.7679,-1.7667,-1.7711,-1.7722,-1.7745,-1.7795,-1.7818,-1.7806,-1.7894,-1.7868,-1.7872,-1.7874,-1.79,-1.7909,-1.7916,-1.7817,-1.7816,-1.7816,0,0,-1.7579,-1.7597,-1.7636,-1.7652,-1.7677,-1.7684,-1.7693,-1.7716,-1.7722,-1.7767,-1.7757,-1.7785,-1.7836,-1.7853,-1.7868,-1.7933,-1.7923,-1.7942,-1.7974,-1.8,-1.8007,-1.8013,-1.8034,-1.8042,-1.7947,-1.7947,-1.7947,0,-1.7606,-1.7654,-1.7657,-1.7692,-1.771,-1.77,-1.7739,-1.7755,-1.7788,-1.7799,-1.7786,-1.7849,-1.7864,-1.7917,-1.7932,-1.7946,-1.7955,-1.7938,-1.8006,-1.8012,-1.8018,-1.8038,-1.8046,-1.7949,-1.7949,-1.7949,-1.7948,0,-1.7685,-1.7718,-1.7747,-1.7778,-1.7799,-1.7837,-1.7843,-1.7864,-1.7862,-1.7869,-1.7913,-1.7931,-1.7962,-1.7975,-1.7974,-1.8027,-1.8018,-1.8006,-1.798,-1.8029,-1.8047,-1.8055,-1.7952,-1.7951,-1.7951,-1.795,0,0,-1.7761,-1.7793,-1.7803,-1.7816,-1.7843,-1.7868,-1.7904,-1.7934,-1.7951,-1.7974,-1.8003,-1.8046,-1.8034,-1.8051,-1.8051,-1.8075,-1.8123,-1.8059,-1.806,-1.8068,-1.818,-1.8188,-1.8197,-1.8117,-1.8119,-1.812,-1.8177,0,-1.7821,-1.7885,-1.7887,-1.7945,-1.7974,-1.7965,-1.7996,-1.8015,-1.8023,-1.8048,-1.8057,-1.8087,-1.807,-1.8079,-1.8103,-1.8112,-1.8145,-1.8108,-1.8143,-1.8144,-1.8135,-1.8207,-1.8216,-1.8269,-1.8185,-1.8186,-1.8187,0,-1.79,-1.7925,-1.7985,-1.8005,-1.8018,-1.8046,-1.8073,-1.8098,-1.8119,-1.8123,-1.8141,-1.8138,-1.8173,-1.8148,-1.8196,-1.8171,-1.8185,-1.8192,-1.8194,-1.8196,-1.8167,-1.8209,-1.8286,-1.8293,-1.8199,-1.8198,-1.8197,0,-1.7946,-1.7995,-1.8037,-1.8049,-1.8074,-1.8094,-1.8105,-1.8125,-1.8142,-1.8165,-1.8176,-1.8204,-1.8218,-1.8239,-1.8242,-1.8224,-1.829,-1.8265,-1.8292,-1.8292,-1.8305,-1.8304,-1.8384,-1.8318,-1.8318,-1.8318,-1.8317,0,-1.8012,-1.8049,-1.8058,-1.8083,-1.8123,-1.8126,-1.8165,-1.8175,-1.8192,-1.8218,-1.8213,-1.8238,-1.8242,-1.8267,-1.827,-1.8308,-1.8315,-1.8318,-1.8318,-1.8317,-1.8316,-1.8325,-1.8321,-1.832,-1.8319,-1.8319,-1.8318,0,-1.807,-1.8078,-1.8122,-1.8143,-1.8149,-1.8177,-1.8194,-1.8218,-1.8225,-1.8258,-1.8266,-1.8277,-1.8306,-1.8312,-1.8347,-1.8349,-1.8393,-1.8391,-1.8386,-1.8385,-1.8411,-1.8407,-1.8497,-1.8508,-1.8437,-1.8438,-1.8438,0,-1.8111,-1.8139,-1.8162,-1.8179,-1.8191,-1.822,-1.8237,-1.824,-1.8258,-1.8283,-1.8304,-1.8333,-1.8355,-1.8403,-1.8413,-1.8439,-1.8436,-1.8466,-1.844,-1.8437,-1.8433,-1.8431,-1.8433,-1.847,-1.8471,-1.8471,-1.8472,0,-1.8181,-1.8183,-1.8209,-1.8236,-1.8257,-1.8278,-1.8298,-1.8312,-1.8318,-1.8339,-1.8368,-1.8386,-1.8421,-1.8449,-1.8475,-1.8486,-1.8479,-1.848,-1.8487,-1.8486,-1.8481,-1.8482,-1.8397,-1.8478,-1.8477,-1.8477,-1.8476,-1.8476,-1.823,-1.8254,-1.8273,-1.8301,-1.8317,-1.8335,-1.8358,-1.8367,-1.8393,-1.8421,-1.8422,-1.8454,-1.8473,-1.8507,-1.8519,-1.8544,-1.8534,-1.8545,-1.8547,-1.8549,-1.8551,-1.8479,-1.8549,-1.8548,-1.8548,-1.8548,-1.8548,0,-1.8298,-1.831,-1.8336,-1.8364,-1.8386,-1.8378,-1.84,-1.8418,-1.8447,-1.8465,-1.8487,-1.8521,-1.8547,-1.856,-1.8586,-1.8603,-1.86,-1.8609,-1.8607,-1.8609,-1.8559,-1.8549,-1.8611,-1.8611,-1.8611,-1.8611,-1.8611,-1.8611,-1.8336,-1.8375,-1.8379,-1.8424,-1.8436,-1.8467,-1.848,-1.8496,-1.8511,-1.8548,-1.857,-1.8578,-1.8594,-1.8621,-1.8644,-1.8647,-1.8656,-1.8666,-1.8667,-1.862,-1.8613,-1.8607,-1.8598,-1.8669,-1.8669,-1.8715,-1.8716,-1.8716]},{"header":{"parameterUnit":"m.s-1","parameterCategory":1,"la1":30.2991,"la2":30.254,"lo1":-89.0895,"lo2":-89.0444,"dy":0.0017,"dx":0.0017,"nx":28,"ny":28,"refTime":"2024-04-01T03:00:00:Z","depth":0,"parameterNumber":3,"parameterNumberName":"V-component_of_WINDS"},"data":[0,0,0,0,0,0,0,0,0,0,0,0,0,0,0,0,0,0,0,0,0,0,0,0,0,0,0,0,0,0,0,0,0,0,0,0,0,0,0,0,0,0,0,0,0,0,0,0,0,0,0,0,0,0,0,0,0,0,2.9997,2.9997,0,2.9991,2.9991,2.9991,3.0006,3.0007,3.0007,3.0008,3.0,2.9999,2.9998,0,0,0,0,0,0,0,0,0,0,0,0,0,3.002,3.002,2.9997,2.9997,2.9997,2.9991,2.9991,2.9991,3.0006,3.0007,3.0007,3.0008,3.0,2.9999,2.9998,0,0,0,0,0,0,0,0,0,0,0,0,0,3.0012,3.0019,2.9997,3.0004,3.0004,2.9991,2.9991,2.9991,3.0006,3.0007,3.0007,3.0008,3.0,2.9999,2.9998,2.9978,0,0,2.9995,2.9995,0,0,0,0,0,0,0,0,3.0012,3.0011,3.0003,3.0003,3.0004,3.0,2.9997,2.9987,3.0006,3.0005,3.0008,3.0008,2.9999,2.9998,2.9996,2.9978,2.9977,2.9995,2.9994,2.9994,2.9994,0,0,0,0,0,0,0,3.0013,3.0011,2.9995,3.0003,3.0003,3.0007,3.0006,2.9995,2.9998,3.0005,3.0006,3.0006,2.9999,2.9996,2.9995,2.9977,2.9995,2.9994,2.9994,2.9993,2.9945,2.9945,0,0,0,0,0,0,3.0013,3.0012,2.9995,2.9995,3.001,3.0006,3.0005,3.0001,2.9998,2.9999,3.0005,3.0006,2.9998,2.9997,2.9995,2.9973,2.9994,2.9993,2.9993,2.9946,2.9945,2.9944,0,0,0,0,0,0,3.0013,3.0011,2.9995,3.0003,3.0002,3.0005,2.9999,3.0,2.9997,2.9998,2.9999,3.0001,2.9998,2.9997,2.9983,2.9973,2.9993,2.9992,2.9947,2.9946,2.9945,2.9928,0,0,0,0,0,0,3.0014,3.0011,3.0003,3.0003,3.0001,2.9983,2.9999,3.0,2.9996,2.9997,2.9995,2.9995,2.9999,2.9984,2.9982,2.9972,2.9991,2.9948,2.9946,2.9945,2.993,2.9927,2.9924,0,0,0,0,0,3.0014,2.9998,3.0003,3.0001,2.9992,2.9982,2.9981,2.9986,2.9995,2.9987,2.9989,2.9995,2.9975,2.9983,2.998,2.997,2.9948,2.9947,2.9945,2.9931,2.9927,2.9924,0,0,0,0,0,0,2.9995,2.9998,3.0003,2.9986,2.9984,2.9985,2.9975,2.9982,2.9976,2.9978,2.9984,2.9983,2.9969,2.9968,2.9977,2.9952,2.9963,2.9961,2.9953,2.995,2.9947,2.9948,2.999,0,0,0,0,0,2.9989,2.9982,2.9984,2.9969,2.9968,2.9972,2.9968,2.9972,2.997,2.9969,2.9969,2.9966,2.9959,2.9954,2.9948,2.993,2.993,2.9922,2.9919,2.9917,2.9915,2.9908,2.9905,2.9939,2.9939,2.9939,0,0,2.9976,2.9976,2.9971,2.9965,2.9964,2.9956,2.9971,2.9961,2.9956,2.9967,2.9955,2.9955,2.9952,2.9937,2.993,2.9936,2.9906,2.9915,2.9913,2.9913,2.9906,2.9903,2.99,2.9938,2.9938,2.9939,0,0,2.9948,2.9948,2.9936,2.9935,2.9934,2.9938,2.9935,2.9935,2.9936,2.9924,2.9933,2.9927,2.9914,2.9913,2.9911,2.9886,2.9893,2.9884,2.987,2.9863,2.986,2.9858,2.985,2.9847,2.9882,2.9882,2.9882,0,2.9932,2.9921,2.9929,2.992,2.9918,2.9929,2.9918,2.9917,2.9913,2.9911,2.9918,2.9905,2.9903,2.9889,2.9883,2.988,2.9878,2.9884,2.986,2.9857,2.9855,2.9849,2.9846,2.9881,2.9881,2.9881,2.9881,0,2.9902,2.9895,2.9886,2.9884,2.9881,2.987,2.9877,2.9872,2.9878,2.9881,2.987,2.9869,2.9864,2.9861,2.9865,2.9848,2.9852,2.9859,2.987,2.9851,2.9845,2.9842,2.9879,2.988,2.988,2.988,0,0,2.9861,2.9866,2.9862,2.9863,2.9864,2.9858,2.9849,2.9846,2.9843,2.984,2.9834,2.9824,2.9832,2.9829,2.9834,2.9828,2.9811,2.9836,2.9836,2.9832,2.9794,2.9789,2.9786,2.9815,2.9815,2.9814,2.9794,0,2.9835,2.9821,2.9829,2.9813,2.9808,2.982,2.9813,2.9813,2.9816,2.9811,2.9814,2.9808,2.9818,2.9817,2.9811,2.9814,2.9803,2.9815,2.981,2.9809,2.9811,2.9782,2.9776,2.9758,2.9792,2.9791,2.9791,0,2.9803,2.9801,2.9786,2.9791,2.9789,2.9782,2.9781,2.9776,2.9777,2.978,2.9779,2.9786,2.9778,2.9789,2.9779,2.9788,2.9786,2.9787,2.9787,2.9787,2.9799,2.9782,2.9752,2.9749,2.9787,2.9787,2.9788,0,2.9776,2.977,2.9761,2.9761,2.9766,2.9761,2.9763,2.9765,2.9763,2.9762,2.9761,2.9758,2.9757,2.9755,2.9761,2.9768,2.9751,2.9762,2.9754,2.9754,2.9749,2.9749,2.9719,2.9747,2.9747,2.9747,2.9747,0,2.9747,2.9737,2.975,2.9744,2.9734,2.9744,2.9734,2.9737,2.9739,2.9734,2.9744,2.974,2.9748,2.9745,2.9749,2.9742,2.974,2.9743,2.9744,2.9743,2.9742,2.9742,2.9743,2.9746,2.9746,2.9747,2.9747,0,2.9715,2.9723,2.9714,2.972,2.9722,2.9715,2.972,2.9715,2.972,2.9714,2.9714,2.9721,2.9717,2.9724,2.9721,2.9724,2.9714,2.9717,2.9714,2.9715,2.9706,2.9708,2.9675,2.9671,2.9701,2.97,2.97,0,2.9696,2.969,2.9696,2.9695,2.9697,2.9693,2.9693,2.9702,2.97,2.9703,2.9698,2.9696,2.9695,2.9689,2.9694,2.9693,2.9696,2.9685,2.9696,2.9695,2.9698,2.9698,2.9699,2.9683,2.9682,2.9682,2.9682,0,2.9663,2.9668,2.9666,2.9667,2.9666,2.9667,2.9668,2.9666,2.9676,2.9674,2.9672,2.9672,2.967,2.9668,2.9668,2.967,2.9678,2.9679,2.9677,2.9675,2.9674,2.9676,2.9709,2.9679,2.9679,2.9679,2.968,2.968,2.9638,2.9634,2.9638,2.9637,2.964,2.9642,2.9638,2.9644,2.9642,2.9643,2.9648,2.9645,2.9649,2.965,2.9651,2.9649,2.9654,2.9651,2.965,2.965,2.9649,2.9674,2.9649,2.9649,2.9649,2.9649,2.9649,0,2.9606,2.961,2.9609,2.9612,2.9612,2.9621,2.9623,2.9622,2.962,2.9623,2.9622,2.9621,2.962,2.9626,2.9626,2.9623,2.9627,2.9623,2.9623,2.9624,2.9644,2.9646,2.962,2.962,2.962,2.962,2.962,2.962,2.9589,2.9584,2.9589,2.9585,2.959,2.9588,2.9589,2.9591,2.9594,2.9592,2.9592,2.9596,2.9601,2.9602,2.9602,2.9603,2.9603,2.9598,2.9601,2.962,2.9622,2.9625,2.9627,2.9598,2.9598,2.9582,2.9582,2.9582]}]]